Location: Waco, TX
(31.5480°N, 97.1670°W)
Time: 02:04:41
(UTC-05:00)

ISS - Pass Details

Date: 13 June 2018
Orbit: 402 x 406 km, 51.6° (Epoch: 22 June)

Event Time Altitude Azimuth Distance (km) Brightness Sun altitude
Rises 19:06:02 0° 331° (NNW) 2,321 0.8 16.5°
Reaches altitude 10° 19:08:43 10° 355° (N) 1,458 -0.6 16.0°
Maximum altitude 19:10:48 16° 35° (NE) 1,158 -1.6 15.6°
Drops below altitude 10° 19:12:53 10° 75° (ENE) 1,452 -1.5 15.1°
Sets 19:15:33 0° 98° (E) 2,307 -0.6 14.6°
